Location: Alafon
(8.4500°N, 4.2333°E)
Time: 21:29:25
(UTC+00:00)

Vanguard 2 - Pass Details

Date: 05 August 2021
Orbit: 553 x 2937 km, 32.9° (Epoch: 26 September)

Event Time Altitude Azimuth Distance (km) Brightness Sun altitude
Rises 14:08:03 0° 250° (WSW) 5,822 12.4 55.1°
Reaches altitude 10° 14:15:00 10° 227° (SW) 5,276 12.2 53.5°
Maximum altitude 14:21:56 14° 201° (SSW) 5,257 12.0 51.9°
Drops below altitude 10° 14:29:27 10° 175° (S) 5,752 11.9 50.1°
Sets 14:38:06 0° 153° (SSE) 6,733 12.1 48.0°
